Tracking 19795 objects as of 19-Jul-2019
HD Live streaming from Space Station
objects crossing your sky now

FLOCK 3P 45

Track FLOCK 3P 45 now!
10-day predictions
FLOCK 3P 45 is classified as:


NORAD ID: 42005
Int'l Code: 2017-008BK
Perigee: 487.0 km
Apogee: 499.3 km
Inclination: 97.4 °
Period: 94.3 minutes
Semi major axis: 6864 km
RCS: Unknown
Launch date: February 15, 2017
Source: United States (US)
Launch site: SRIHARIKOTA (SRI)
aabbcc
Your satellite tracking list
Your tracking list is empty




NASA's NSSDC Master Catalog

Two Line Element Set (TLE):
1 42005U 17008BK  19199.74905700 +.00001459 +00000-0 +58498-4 0  9995
2 42005 097.4058 267.0618 0009017 061.8933 298.3216 15.26590214134580
Source of the keplerian elements: AFSPC